Regional Weather Roundup
Issued by NWS

Home | Current Version | Previous Version | Graphics & Text | Print | Product List | Glossary On
Versions: 1 2 3 4 5 6 7 8 9 10 11 12 13 14 15 16 17 18 19 20 21 22 23 24 25 26 27 28 29 30 31 32 33 34 35 36 37 38 39 40 41 42 43 44 45 46 47 48 49 50
000
ASUS43 KMKX 111920
RWRWI

WISCONSIN REGIONAL WEATHER ROUNDUP
NATIONAL WEATHER SERVICE MILWAUKEE/SULLIVAN WI
100 PM CST MON DEC 11 2017

NOTE: "FAIR" INDICATES FEW OR NO CLOUDS BELOW 12,000 FEET WITH NO
SIGNIFICANT WEATHER AND/OR OBSTRUCTIONS TO VISIBILITY.

WIZ001-002-006>008-014>016-023>028-112000-
NORTHWEST WISCONSIN

CITY           SKY/WX    TMP DP  RH WIND       PRES   REMARKS
SUPERIOR ARPT  CLOUDY    29  23  79 N21G26    29.86R WCI  15
ASHLAND        CLOUDY    28  22  78 NW12      29.79R WCI  18
HAYWARD        CLOUDY    28  22  78 N7        29.78R WCI  21
SIREN          CLOUDY    30  25  80 N7        29.83R WCI  23
CUMBERLAND     CLOUDY    28  25  86 N20G25    29.78R WCI  15
RICE LAKE      CLOUDY    30  26  83 NW16      29.79R WCI  19
CHETEK         CLOUDY    29  26  89 NW3       29.77R
LADYSMITH      CLOUDY    28  25  89 NW7       29.76R WCI  21
EAU CLAIRE     CLOUDY    29  24  82 NW6       29.77R HAZE    WCI  23
MENOMONIE      LGT SNOW  31  28  86 W6        29.78R WCI  26
NEW RICHMOND   CLOUDY    31  26  83 N22G28    29.81R HAZE    WCI  18
OSCEOLA        CLOUDY    32  27  82 N13G20    29.85R WCI  22
$$

WIZ003>005-009-010-017-018-112000-
NORTH CENTRAL WISCONSIN

CITY           SKY/WX    TMP DP  RH WIND       PRES   REMARKS
MANITOWISH WTR CLOUDY    23  23 100 W5        29.70S WCI  17
ARBOR VITAE    CLOUDY    24  22  91 NW5       29.70R WCI  18
WOODRUFF       CLOUDY    24  22  91 NW5       29.70R WCI  18
RHINELANDER    CLOUDY    23  22  96 W7        29.69F WCI  15
EAGLE RIVER    CLOUDY    22  21  95 W6        29.68S WCI  15
LAND O LAKES   CLOUDY    23  20  89 W6        29.70S WCI  16
PHILLIPS       CLOUDY    24  23  97 NW6       29.72R WCI  17
TOMAHAWK       CLOUDY    22  21  93 CALM      29.71S FOG
MEDFORD        CLOUDY    25  22  91 W6        29.70S FOG     WCI  18
MERRILL        CLOUDY    24  23  96 CALM      29.72R FOG
$$

WIZ029-030-035-036-043>047-112000-
CENTRAL WISCONSIN

CITY           SKY/WX    TMP DP  RH WIND       PRES   REMARKS
WAUSAU         LGT SNOW  25  23  92 NW6       29.70S FOG     WCI  18
MOSINEE        CLOUDY    25  25 100 CALM      29.72F FOG
MARSHFIELD     CLOUDY    28  23  81 NW6       29.70S WCI  22
STEVENS POINT  CLOUDY    25  23  91 W5        29.72F WCI  20
WAUPACA        CLOUDY    30  24  79 CALM      29.72F
WAUTOMA        CLOUDY    33  24  69 CALM      29.71F
WISC RAPIDS    CLOUDY    30  24  78 NW7       29.73S WCI  23
CAMP DOUGLAS   CLOUDY    32  25  74 NW3       29.72S
$$

WIZ011>013-019>022-031-037>040-048>050-112000-
NORTHEAST WISCONSIN

CITY           SKY/WX    TMP DP  RH WIND       PRES   REMARKS
ANTIGO         CLOUDY    21  21  99 SW5       29.70S FOG     WCI  15
SHAWANO        CLOUDY    28  24  87 CALM      29.72F
OCONTO         CLOUDY    25  23  91 CALM      29.73F
STURGEON BAY   MIX PCPN  27  25  93 S5        29.73F FOG     WCI  21
GREEN BAY      CLOUDY    27  24  89 SW5       29.73F WCI  22
MANITOWOC      CLOUDY    29  23  78 SW6       29.74F WCI  23
APPLETON       CLOUDY    27  21  80 SW6       29.71F WCI  20
CLINTONVILLE   CLOUDY    27  23  86 CALM      29.73F
OSHKOSH        CLOUDY    30  24  78 SW5       29.71F WCI  25
$$

WIZ032>034-041-042-053>061-112000-
SOUTHWEST WISCONSIN

CITY           SKY/WX    TMP DP  RH WIND       PRES   REMARKS
LA CROSSE      LGT SNOW  30  26  85 NW5       29.76R FOG     WCI  25
SPARTA         CLOUDY    29  26  88 W3        29.75S
VIROQUA        CLOUDY    28  28 100 NW3       29.71S
BOSCOBEL       SNOW      32  28  85 N3        29.74R VSB 1/2
PRAIRIE DU CHI CLOUDY    32  24  72 NW6       29.73R WCI  27
PLATTEVILLE    CLOUDY    33  29  82 NW5       29.70S WCI  29
$$

WIZ056-057-062-063-064-067-068-112000-
SOUTH CENTRAL WISCONSIN

CITY           SKY/WX    TMP DP  RH WIND       PRES   REMARKS
REEDSBURG      LGT RAIN  29  26  87 CALM      29.71S
BARABOO/DELLS  CLOUDY    31  24  75 CALM      29.70S
LONE ROCK      HVY SNOW  31  27  85 NW7       29.73R VSB 1/4 WCI  24
MINERAL POINT  CLOUDY    32  30  93 W3        29.69S
MADISON        CLOUDY    31  25  78 CALM      29.69F
MIDDLETON      CLOUDY    33  27  80 W3        29.69F
WATERTOWN      MOSUNNY   32  27  81 SE5       29.69F WCI  27
MONROE         CLOUDY    32  27  80 CALM      29.67S
JANESVILLE     CLOUDY    36  27  69 CALM      29.69F
$$

WIZ051-052-058>065-066-070>072-112000-
SOUTHEAST WISCONSIN

CITY           SKY/WX    TMP DP  RH WIND       PRES   REMARKS
MILWAUKEE      CLOUDY    33  25  72 S6        29.71F WCI  28
WAUKESHA       SUNNY     28  23  80 S6        29.72F WCI  22
MILWAUKEE/TIMM PTSUNNY   32  21  64 S6        29.73F WCI  26
RACINE         CLOUDY    34  27  75 S9        29.72F WCI  27
BURLINGTON     CLOUDY    41  36  84 CALM      29.70F
KENOSHA        CLOUDY    34  25  69 S9        29.70F WCI  27
FOND DU LAC    CLOUDY    32  23  69 S5        29.71F WCI  27
SHEBOYGAN      CLOUDY    29  25  85 S6        29.71F WCI  23
WEST BEND      CLOUDY    30  27  86 CALM      29.69F
JUNEAU         CLOUDY    30  25  80 S5        29.70F WCI  25
$$

LSZ147-162-112000-
LAKE SUPERIOR

STATION/POSITION TIME  TEMP    WIND        PRES    WAVE
                       AIR SEA DIR/SP/G            HT/PER
                 (UTC) (F)     (DEG/KT/KT) (MB)    (FT/S)
DEVILS ISLAND    1900   27     330/ 25/ 28 1010.1R
SAXON HARBOR     1840   27                 1008.1S
$$

LMZ867-665-643>646-112000-
LAKE MICHIGAN

STATION/POSITION TIME  TEMP    WIND        PRES    WAVE
                       AIR SEA DIR/SP/G            HT/PER
                 (UTC) (F)     (DEG/KT/KT) (MB)    (FT/S)
NORTHPORT PIER   1840   26     230/  2/  6 1007.1F
KEWAUNEE LAKESHO 1854   27     220/  3/  4 1006.4F
SHEBOYGAN LAKESH 1900   31     190/ 10/ 10 1007.0F
PORT WASHINGTON  1830   32     190/  6/  9 1008.1F
MILWAUKEE LAKESH 1900   33     170/  5/  7   N/A
KENOSHA   LAKESH 1900   34     180/ 13/ 15 1006.1
$$

TC  - TEMPERATURE IN CELSIUS
VSB - VISIBILITY IN STATUTE MILES
WCI - WIND CHILL INDEX
HX  - HEAT INDEX





USA.gov is the U.S. government's official web portal to all federal, state and local government web resources and services.